Location: Brno
(49.2000°N, 16.6333°E)
Time: 14:53:45
(UTC+01:00)

ISS - Pass Details

Date: 29 January 2019
Orbit: 403 x 411 km, 51.6° (Epoch: 18 February)

Event Time Altitude Azimuth Distance (km) Brightness Sun altitude
Rises 18:16:19 0° 262° (W) 2,331 2.0 -15.0°
Reaches altitude 10° 18:18:25 10° 266° (W) 1,473 0.4 -15.3°
Maximum altitude 18:21:42 64° 348° (NNW) 459 -3.6 -15.9°
Enters shadow 18:22:46 38° 55° (NE) 644 -3.3 -16.0°
